FW5225 Weather Reports


Display with metric or nautical units.
time (UTC)temp
F
wind
direction
speed
MPH
gust
MPH
rain 1hr
in
rain 24hr
in
rain mn
in
humidity
%
barometer
mb
20220810070547 85 217 0.0 0.0 0.00 0.02 0.00 63 1011.4
20220810070052 85 217 0.0 0.0 0.00 0.02 0.00 61 1011.3
20220810065545 85 217 0.0 0.0 0.00 0.02 0.02 58 1011.3
20220810065046 85 217 0.0 0.0 0.00 0.02 0.02 59 1011.3
20220810064606 85 217 0.0 0.0 0.00 0.02 0.02 60 1011.3
20220810064045 85 217 0.0 0.0 0.00 0.02 0.02 62 1011.1
20220810063544 85 217 0.0 0.0 0.00 0.02 0.02 61 1011.3
20220810063105 86 217 0.0 0.0 0.00 0.02 0.02 61 1011.2
20220810062544 86 217 0.0 0.0 0.00 0.02 0.02 60 1011.2
20220810062044 86 217 0.0 0.0 0.00 0.02 0.02 60 1011.2
20220810061603 86 217 0.0 0.0 0.00 0.02 0.02 56 1011.1
20220810061045 86 217 0.0 0.0 0.00 0.02 0.02 58 1011.0
20220810060543 86 217 0.0 0.0 0.00 0.02 0.02 56 1011.0
20220810060057 86 217 0.0 0.0 0.00 0.02 0.02 56 1010.9
20220810055544 86 217 0.0 0.0 0.00 0.02 0.02 58 1010.8
20220810055043 86 217 0.0 0.0 0.00 0.02 0.02 58 1010.8
20220810054546 86 217 0.0 0.0 0.00 0.02 0.02 57 1010.7
20220810054047 86 217 0.0 0.0 0.00 0.02 0.02 57 1010.6
20220810053544 86 217 0.0 0.0 0.00 0.02 0.02 56 1010.6
20220810053046 86 217 0.0 0.0 0.00 0.02 0.02 57 1010.6
20220810052542 87 217 0.0 0.0 0.00 0.02 0.02 59 1010.6
20220810052045 87 217 0.0 0.0 0.00 0.02 0.02 56 1010.6
20220810051558 87 217 0.0 0.0 0.00 0.02 0.02 56 1010.7
20220810051042 87 217 0.0 0.0 0.00 0.02 0.02 56 1010.7
20220810050544 86 217 0.0 0.0 0.00 0.02 0.02 58 1010.7
20220810050115 86 217 0.0 0.0 0.00 0.02 0.02 58 1010.7
20220810045547 87 217 0.0 0.0 0.00 0.02 0.02 61 1010.7
20220810045044 87 217 0.0 0.0 0.00 0.02 0.02 60 1010.7
20220810044557 87 217 0.0 0.0 0.00 0.02 0.02 58 1010.7
20220810044044 88 217 0.0 0.0 0.00 0.02 0.02 54 1010.7
20220810043542 88 217 0.0 0.0 0.00 0.02 0.02 53 1010.6
20220810043052 88 217 0.0 0.0 0.00 0.02 0.02 53 1010.6
20220810042541 88 217 0.0 0.0 0.00 0.02 0.02 53 1010.6
20220810042041 88 217 0.0 0.0 0.00 0.02 0.02 55 1010.6
20220810041603 89 217 0.0 0.0 0.00 0.02 0.02 54 1010.6
20220810041041 89 217 0.0 0.0 0.00 0.02 0.02 54 1010.5
20220810040541 89 217 0.0 0.0 0.00 0.02 0.02 52 1010.4
20220810040046 90 217 0.0 0.0 0.00 0.02 0.02 49 1010.3
20220810035541 90 217 0.0 0.0 0.00 0.02 0.02 46 1010.3
20220810035046 89 217 0.0 0.0 0.00 0.02 0.02 49 1010.3
20220810034608 89 217 0.0 0.0 0.00 0.02 0.02 49 1010.2
20220810034041 89 217 0.0 0.0 0.00 0.02 0.02 50 1010.1
20220810033541 90 217 0.0 0.0 0.00 0.02 0.02 52 1010.1
20220810033039 90 217 0.0 0.0 0.00 0.02 0.02 52 1009.9
20220810032548 91 217 0.0 0.0 0.00 0.02 0.02 50 1009.8
20220810032039 92 217 0.0 0.0 0.00 0.02 0.02 47 1009.8
20220810031539 93 217 0.0 0.0 0.00 0.02 0.02 47 1009.7
20220810031041 93 217 0.0 0.0 0.00 0.02 0.02 46 1009.7
20220810030539 93 217 0.0 0.0 0.00 0.02 0.02 46 1009.6
20220810030045 94 217 0.0 0.0 0.00 0.02 0.02 45 1009.6
20220810025541 94 217 0.0 0.0 0.00 0.02 0.02 42 1009.6
20220810025042 94 217 0.0 1.0 0.00 0.02 0.02 41 1009.6
20220810024538 94 217 0.0 2.0 0.00 0.02 0.02 40 1009.6
20220810024043 94 217 0.0 2.0 0.00 0.02 0.02 40 1009.6
20220810023541 94 236 0.0 2.0 0.00 0.02 0.02 40 1009.6
20220810023038 95 236 0.0 2.0 0.00 0.02 0.02 40 1009.6
20220810022538 95 242 0.0 2.0 0.00 0.02 0.02 40 1009.5
20220810022037 95 264 0.0 0.0 0.00 0.02 0.02 39 1009.4
20220810021537 95 264 0.0 0.0 0.00 0.02 0.02 40 1009.3
20220810021037 95 264 0.0 0.0 0.00 0.02 0.02 39 1009.2
20220810020538 95 263 0.0 4.0 0.00 0.02 0.02 38 1009.1
20220810020108 96 263 2.0 4.0 0.00 0.02 0.02 38 1009.0
20220810015540 96 178 0.0 2.0 0.00 0.02 0.02 37 1008.8
20220810015041 97 60 0.0 0.0 0.00 0.02 0.02 35 1008.6
20220810014536 97 60 0.0 0.0 0.00 0.02 0.02 38 1008.6
20220810014040 97 60 0.0 1.0 0.00 0.02 0.02 36 1008.5
20220810013537 97 61 0.0 3.0 0.00 0.02 0.02 35 1008.5
20220810013106 98 61 0.0 3.0 0.00 0.02 0.02 35 1008.4
20220810012538 98 54 0.0 3.0 0.00 0.02 0.02 35 1008.3
20220810012035 99 50 0.0 2.0 0.00 0.02 0.02 35 1008.3
20220810011556 99 49 0.0 3.0 0.00 0.02 0.02 35 1008.2
20220810011035 99 54 0.0 3.0 0.00 0.02 0.02 34 1008.2
20220810010543 100 54 1.0 6.0 0.00 0.02 0.02 34 1008.1
20220810010045 100 49 3.0 6.0 0.00 0.02 0.02 34 1008.1
20220810005535 99 38 1.0 5.0 0.00 0.02 0.02 34 1007.8
20220810005034 99 329 0.0 4.0 0.00 0.02 0.02 34 1007.9
20220810004534 99 329 2.0 4.0 0.00 0.02 0.02 35 1007.9
20220810004033 99 81 0.0 4.0 0.00 0.02 0.02 34 1007.9
20220810003533 99 84 1.0 5.0 0.00 0.02 0.02 36 1007.9
20220810003038 99 91 0.0 5.0 0.00 0.02 0.02 35 1008.0
20220810002532 99 85 0.0 5.0 0.00 0.02 0.02 34 1008.1
20220810002032 99 22 0.0 4.0 0.00 0.02 0.02 34 1008.2
20220810001545 99 26 1.0 4.0 0.00 0.02 0.02 36 1008.2
20220810001031 99 33 1.0 4.0 0.00 0.02 0.02 35 1008.2
20220810000540 99 16 0.0 6.0 0.00 0.02 0.02 35 1008.2
20220810000035 99 5 2.0 8.0 0.00 0.02 0.02 35 1008.2
20220809235531 99 71 2.0 6.0 0.00 0.02 0.02 36 1008.2
20220809235030 99 88 0.0 5.0 0.00 0.02 0.02 34 1008.2
20220809234529 100 14 2.0 6.0 0.00 0.02 0.02 35 1008.5
20220809234034 100 46 3.0 7.0 0.00 0.02 0.02 35 1008.5
20220809233531 99 53 1.0 9.0 0.00 0.02 0.02 36 1008.5
20220809233037 99 47 5.0 9.0 0.00 0.02 0.02 35 1008.6
20220809232532 99 43 3.0 8.0 0.00 0.02 0.02 37 1008.6
20220809232027 99 34 6.0 9.0 0.00 0.02 0.02 37 1008.6
20220809231526 100 21 2.0 9.0 0.00 0.02 0.02 37 1008.6
20220809231024 99 53 2.0 8.0 0.00 0.02 0.02 36 1008.7
20220809230524 98 51 3.0 8.0 0.00 0.02 0.02 38 1008.9
20220809230028 97 42 2.0 7.0 0.00 0.02 0.02 41 1008.8
20220809225524 97 347 4.0 9.0 0.00 0.02 0.02 39 1008.7
20220809225023 97 9 2.0 9.0 0.00 0.02 0.02 40 1008.8
20220809224528 97 24 3.0 8.0 0.00 0.02 0.02 40 1008.9
20220809224023 97 40 3.0 8.0 0.00 0.02 0.02 39 1008.9
20220809223525 99 342 4.0 8.0 0.00 0.02 0.02 40 1008.9
20220809223021 99 35 2.0 7.0 0.00 0.02 0.02 38 1008.9
20220809222521 99 59 2.0 7.0 0.00 0.02 0.02 39 1009.0
20220809222025 99 59 3.0 7.0 0.00 0.02 0.02 37 1009.0
20220809221520 99 34 1.0 7.0 0.00 0.02 0.02 40 1009.1
20220809221054 99 53 1.0 7.0 0.00 0.02 0.02 38 1009.1
20220809220521 98 103 3.0 8.0 0.00 0.02 0.02 37 1009.3
20220809220019 98 54 4.0 8.0 0.00 0.02 0.02 37 1009.3
20220809215521 98 37 0.0 5.0 0.00 0.02 0.02 39 1009.4
20220809215021 98 100 1.0 6.0 0.00 0.02 0.02 37 1009.4
20220809214516 98 53 3.0 7.0 0.00 0.02 0.02 37 1009.5
20220809214017 98 34 3.0 6.0 0.00 0.02 0.02 38 1009.5
20220809213517 98 59 1.0 6.0 0.00 0.02 0.02 37 1009.6
20220809213026 97 45 2.0 7.0 0.00 0.02 0.02 38 1009.7
20220809212523 97 65 1.0 7.0 0.00 0.02 0.02 39 1009.8
20220809212016 98 43 2.0 7.0 0.00 0.02 0.02 38 1009.9
20220809211526 98 78 1.0 7.0 0.00 0.02 0.02 38 1009.9
20220809211019 98 124 1.0 7.0 0.00 0.02 0.02 36 1010.0
20220809210519 98 74 2.0 7.0 0.00 0.02 0.02 38 1010.0
20220809210015 98 57 0.0 7.0 0.00 0.02 0.02 38 1010.1
20220809205513 97 55 4.0 7.0 0.00 0.02 0.02 39 1010.2
20220809205019 96 86 1.0 5.0 0.00 0.02 0.02 38 1010.4
20220809204517 96 49 1.0 5.0 0.00 0.02 0.02 41 1010.5
20220809204011 95 57 0.0 3.0 0.00 0.02 0.02 40 1010.5
20220809203509 95 55 0.0 5.0 0.00 0.02 0.02 39 1010.6
20220809203008 95 44 1.0 6.0 0.00 0.02 0.02 39 1010.7
20220809202507 94 61 2.0 5.0 0.00 0.02 0.02 41 1010.8
20220809202007 94 87 1.0 4.0 0.00 0.02 0.02 41 1010.9
20220809201510 94 74 0.0 5.0 0.00 0.02 0.02 40 1010.9
20220809201005 93 62 0.0 5.0 0.00 0.02 0.02 42 1011.0
20220809200503 92 57 2.0 4.0 0.00 0.02 0.02 45 1011.1
20220809200004 91 51 0.0 4.0 0.00 0.02 0.02 45 1011.2
20220809195501 91 61 2.0 6.0 0.00 0.02 0.02 46 1011.3
20220809195101 90 57 1.0 6.0 0.00 0.02 0.02 47 1011.4
20220809194559 90 38 1.0 5.0 0.00 0.02 0.02 47 1011.5
20220809194059 88 79 0.0 5.0 0.00 0.02 0.02 49 1011.8
20220809193557 88 54 0.0 6.0 0.00 0.02 0.02 49 1012.0
20220809193056 87 38 1.0 4.0 0.00 0.02 0.02 51 1012.0
20220809192555 87 36 2.0 5.0 0.00 0.02 0.02 51 1012.1
20220809192054 86 41 3.0 5.0 0.00 0.02 0.02 54 1012.3
20220809191552 86 40 1.0 6.0 0.00 0.02 0.02 56 1012.3
20220809191055 85 36 2.0 5.0 0.00 0.02 0.02 56 1012.5
20220809190553 85 40 1.0 5.0 0.00 0.02 0.02 58 1012.5
20220809190106 85 34 2.0 6.0 0.00 0.02 0.02 57 1012.5
20220809185551 85 43 3.0 6.0 0.00 0.02 0.02 57 1012.6
20220809185050 85 51 3.0 6.0 0.00 0.02 0.02 57 1012.7
20220809184549 85 36 2.0 5.0 0.00 0.02 0.02 57 1012.8
20220809184050 85 5 1.0 5.0 0.00 0.02 0.02 58 1012.8
20220809183550 85 40 1.0 4.0 0.00 0.02 0.02 58 1012.8
20220809183049 85 40 0.0 4.0 0.00 0.02 0.02 56 1012.9
20220809182552 85 40 2.0 5.0 0.00 0.02 0.02 55 1013.0
20220809182048 85 40 2.0 5.0 0.00 0.02 0.02 55 1012.9
20220809181551 85 46 2.0 6.0 0.00 0.02 0.02 57 1012.9
20220809181051 84 55 3.0 6.0 0.00 0.02 0.02 57 1013.1
20220809180548 84 41 2.0 5.0 0.00 0.02 0.02 58 1013.1
20220809180048 84 39 2.0 5.0 0.00 0.02 0.02 59 1013.2
20220809175547 84 31 1.0 4.0 0.00 0.02 0.02 62 1013.2
20220809175047 83 34 1.0 6.0 0.00 0.02 0.02 61 1013.1
20220809174545 83 42 3.0 6.0 0.00 0.02 0.02 60 1013.2
20220809174048 83 47 2.0 6.0 0.00 0.02 0.02 60 1013.2
20220809173547 83 40 2.0 6.0 0.00 0.02 0.02 59 1013.1
20220809173049 83 51 3.0 6.0 0.00 0.02 0.02 59 1013.2
20220809172544 83 51 2.0 6.0 0.00 0.02 0.02 59 1013.3
20220809172045 83 68 1.0 4.0 0.00 0.02 0.02 58 1013.3
20220809171545 83 64 2.0 4.0 0.00 0.02 0.02 58 1013.4
20220809171044 83 84 1.0 5.0 0.00 0.02 0.02 58 1013.4
20220809170543 83 75 1.0 5.0 0.00 0.02 0.02 60 1013.3
20220809170047 83 51 2.0 6.0 0.00 0.02 0.02 62 1013.3
20220809165542 83 55 2.0 6.0 0.00 0.02 0.02 63 1013.2
20220809165045 83 49 0.0 5.0 0.00 0.02 0.02 63 1013.1
20220809164609 82 38 3.0 6.0 0.00 0.02 0.02 62 1013.1
20220809164043 82 41 3.0 6.0 0.00 0.02 0.02 65 1013.1
20220809163546 82 42 1.0 5.0 0.00 0.02 0.02 68 1013.1
20220809163050 81 47 2.0 5.0 0.00 0.02 0.02 68 1013.1
20220809162543 81 48 1.0 4.0 0.00 0.02 0.02 69 1013.1
20220809162040 81 49 1.0 5.0 0.00 0.02 0.02 68 1013.1
20220809161537 80 49 2.0 4.0 0.00 0.02 0.02 69 1013.1
20220809161041 80 74 2.0 4.0 0.00 0.02 0.02 69 1013.0
20220809160539 80 82 2.0 4.0 0.00 0.02 0.02 70 1013.0
20220809160036 80 83 1.0 5.0 0.00 0.02 0.02 71 1013.1
20220809155538 80 84 0.0 4.0 0.00 0.02 0.02 71 1013.1
20220809155035 80 83 2.0 4.0 0.00 0.02 0.02 71 1013.2
20220809154534 79 69 1.0 3.0 0.00 0.02 0.02 72 1013.1
20220809154033 79 70 0.0 3.0 0.00 0.02 0.02 73 1013.1
20220809153535 79 51 0.0 1.0 0.00 0.02 0.02 75 1013.0
20220809153034 78 50 0.0 1.0 0.00 0.02 0.02 75 1013.0
20220809152533 78 50 0.0 3.0 0.00 0.02 0.02 76 1013.0
20220809152032 78 50 0.0 3.0 0.00 0.02 0.02 77 1013.1
20220809151533 78 50 0.0 0.0 0.00 0.02 0.02 77 1013.0
20220809151033 78 50 0.0 0.0 0.00 0.02 0.02 77 1013.0
20220809150531 77 50 0.0 0.0 0.00 0.02 0.02 77 1013.0
20220809150032 77 50 0.0 0.0 0.00 0.02 0.02 78 1013.0
20220809145536 77 49 0.0 2.0 0.00 0.02 0.02 79 1013.0
20220809145030 77 49 0.0 4.0 0.00 0.02 0.02 80 1012.9
20220809144531 77 49 1.0 4.0 0.00 0.02 0.02 80 1012.9
20220809144030 77 49 0.0 4.0 0.00 0.02 0.02 80 1012.9
20220809143530 77 48 1.0 3.0 0.00 0.02 0.02 80 1012.9
20220809143030 77 48 0.0 4.0 0.00 0.02 0.02 81 1012.9
20220809142530 77 47 1.0 4.0 0.00 0.02 0.02 81 1012.9
20220809142029 77 48 2.0 4.0 0.00 0.02 0.02 82 1013.0
20220809141530 77 48 2.0 4.0 0.00 0.02 0.02 82 1013.0
20220809141028 77 49 0.0 4.0 0.00 0.02 0.02 82 1013.0
20220809140529 76 48 1.0 4.0 0.00 0.02 0.02 83 1012.9
20220809140027 76 55 1.0 5.0 0.00 0.02 0.02 83 1012.8
20220809135528 76 53 1.0 5.0 0.00 0.02 0.02 84 1012.8
20220809135026 76 51 3.0 4.0 0.00 0.02 0.02 84 1012.6
20220809134526 76 71 0.0 4.0 0.00 0.02 0.02 84 1012.6
20220809134025 76 71 1.0 4.0 0.00 0.02 0.02 84 1012.5
20220809133526 76 72 0.0 2.0 0.00 0.02 0.02 84 1012.5
20220809133022 76 71 0.0 2.0 0.00 0.02 0.02 84 1012.4
20220809132520 76 71 0.0 2.0 0.00 0.02 0.02 84 1012.4
20220809132019 76 71 0.0 3.0 0.00 0.02 0.02 84 1012.4
20220809131519 76 70 0.0 5.0 0.00 0.02 0.02 84 1012.2
20220809131019 76 58 1.0 6.0 0.00 0.02 0.02 83 1012.0
20220809130517 75 43 2.0 7.0 0.00 0.02 0.02 84 1011.8
20220809130016 75 61 4.0 8.0 0.00 0.02 0.02 84 1011.7
20220809125518 75 34 3.0 10.0 0.00 0.02 0.02 84 1011.4
20220809125013 75 37 4.0 10.0 0.00 0.02 0.02 85 1011.3
20220809124523 75 47 4.0 11.0 0.00 0.02 0.02 85 1011.4
20220809124012 76 20 5.0 10.0 0.00 0.02 0.02 84 1011.4
20220809123517 76 40 6.0 12.0 0.00 0.02 0.02 84 1011.3
20220809123012 76 34 6.0 14.0 0.00 0.02 0.02 83 1011.2
20220809122513 76 39 8.0 14.0 0.00 0.02 0.02 82 1010.9
20220809122012 76 38 7.0 13.0 0.00 0.02 0.02 81 1010.8
20220809121510 77 38 8.0 13.0 0.00 0.02 0.02 81 1010.6
20220809121010 77 42 5.0 9.0 0.00 0.02 0.02 81 1010.6
20220809120510 77 26 4.0 9.0 0.01 0.02 0.02 80 1010.5
20220809120012 77 40 5.0 8.0 0.01 0.02 0.02 79 1010.6
20220809115510 77 54 0.0 5.0 0.01 0.02 0.02 79 1010.7
20220809115008 77 14 0.0 3.0 0.02 0.02 0.02 78 1010.7
20220809114508 77 12 0.0 6.0 0.02 0.02 0.02 79 1010.7
20220809114009 77 344 2.0 6.0 0.02 0.02 0.02 79 1010.8
20220809113508 76 329 3.0 10.0 0.02 0.02 0.02 80 1010.8
20220809113008 76 328 5.0 10.0 0.02 0.02 0.02 80 1010.9
20220809112508 76 343 4.0 9.0 0.02 0.02 0.02 80 1011.1
20220809112008 76 346 0.0 3.0 0.02 0.02 0.02 81 1011.4
20220809111507 76 15 0.0 3.0 0.02 0.02 0.02 80 1011.7
20220809111006 76 13 0.0 3.0 0.02 0.02 0.02 80 1011.9
20220809110507 76 40 0.0 3.0 0.01 0.01 0.01 79 1012.0
20220809110005 76 40 0.0 4.0 0.01 0.01 0.01 79 1011.9
20220809105504 76 77 0.0 4.0 0.01 0.01 0.01 78 1011.9
20220809105007 76 86 0.0 3.0 0.00 0.00 0.00 78 1011.9
20220809104503 76 86 0.0 3.0 0.00 0.00 0.00 77 1012.0
20220809104004 77 90 0.0 3.0 0.00 0.00 0.00 77 1012.2
20220809103502 77 90 0.0 3.0 0.00 0.00 0.00 76 1012.2
20220809103000 77 90 0.0 3.0 0.00 0.00 0.00 76 1012.3
20220809102600 77 90 1.0 5.0 0.00 0.00 0.00 74 1012.3
20220809102102 78 91 1.0 7.0 0.00 0.00 0.00 73 1012.4
20220809101557 78 78 1.0 9.0 0.00 0.00 0.00 71 1012.5
20220809101057 78 71 3.0 9.0 0.00 0.00 0.00 71 1012.5
20220809100557 78 83 2.0 11.0 0.00 0.00 0.00 70 1012.6
20220809100107 78 103 4.0 12.0 0.00 0.00 0.00 70 1012.5
20220809095558 78 101 1.0 12.0 0.00 0.00 0.00 69 1012.5
20220809095054 79 130 5.0 10.0 0.00 0.00 0.00 69 1012.4
20220809094553 79 101 2.0 13.0 0.00 0.00 0.00 69 1012.3
20220809094055 79 81 4.0 13.0 0.00 0.00 0.00 68 1012.4
20220809093552 79 150 7.0 13.0 0.00 0.00 0.00 68 1012.4
20220809093051 79 121 6.0 13.0 0.00 0.00 0.00 68 1012.2
20220809092551 80 105 6.0 16.0 0.00 0.00 0.00 68 1012.0
20220809092048 80 67 6.0 16.0 0.00 0.00 0.00 67 1011.8
20220809091555 81 167 3.0 12.0 0.00 0.00 0.00 65 1011.7
20220809091046 82 112 4.0 18.0 0.00 0.00 0.00 64 1011.4
20220809090544 82 161 8.0 22.0 0.00 0.00 0.00 62 1011.1
20220809090044 83 136 8.0 22.0 0.00 0.00 0.00 60 1010.8
20220809085543 85 178 2.0 19.0 0.00 0.00 0.00 56 1010.8
20220809085044 88 146 8.0 18.0 0.00 0.00 0.00 51 1010.3
20220809084538 88 206 0.0 0.0 0.00 0.00 0.00 48 1009.4
20220809084038 88 207 0.0 2.0 0.00 0.00 0.00 48 1009.2
20220809083538 88 207 0.0 2.0 0.00 0.00 0.00 48 1009.1
20220809083047 88 207 0.0 0.0 0.00 0.00 0.00 48 1009.1
20220809082537 88 207 0.0 1.0 0.00 0.00 0.00 48 1009.1
20220809082038 88 207 0.0 2.0 0.00 0.00 0.00 48 1009.1
20220809081537 89 207 0.0 4.0 0.00 0.00 0.00 48 1009.1
20220809081038 89 197 1.0 4.0 0.00 0.00 0.00 47 1009.1
20220809080536 89 223 0.0 3.0 0.00 0.00 0.00 47 1009.0
20220809080045 89 237 0.0 4.0 0.00 0.00 0.00 47 1009.0
20220809075534 89 246 0.0 5.0 0.00 0.00 0.00 47 1009.1
20220809075034 89 267 2.0 5.0 0.00 0.00 0.00 47 1009.2
20220809074532 89 245 0.0 3.0 0.00 0.00 0.00 46 1009.3
20220809074032 90 252 0.0 6.0 0.00 0.00 0.00 46 1009.4
20220809073531 90 253 2.0 9.0 0.00 0.00 0.00 45 1009.4
20220809073031 89 299 4.0 9.0 0.00 0.00 0.00 46 1009.4
20220809072531 89 277 2.0 8.0 0.00 0.00 0.00 47 1009.4
20220809072030 90 259 2.0 8.0 0.00 0.00 0.00 45 1009.4
20220809071530 90 259 3.0 5.0 0.00 0.00 0.00 45 1009.6
20220809071033 90 253 2.0 5.0 0.00 0.00 0.00 45 1009.6